Location: Astronomy Club of Akron Observatory
(40.9700°N, 81.5606°W)
Time: 18:37:41
(UTC-04:00)

ISS - Pass Details

Date: 16 July 2018
Orbit: 402 x 408 km, 51.6° (Epoch: 19 July)

Event Time Altitude Azimuth Distance (km) Brightness Sun altitude
Rises 04:17:17 0° 309° (NW) 2,332 0.0 -16.9°
Reaches altitude 10° 04:20:00 10° 333° (NNW) 1,471 -0.7 -16.5°
Maximum altitude 04:22:04 15° 12° (NNE) 1,185 -0.6 -16.3°
Drops below altitude 10° 04:24:08 10° 51° (NE) 1,471 0.3 -16.0°
Sets 04:26:51 0° 75° (ENE) 2,331 1.0 -15.7°
